Multibeam Report for MGL1108


Ship Name: Marcus G. Langseth
Chief Scientist: None
Source Organization: UNOLS R2R
Start Date: 2011-05-26
End Date: 2011-06-03


View ISO Metadata

Visit the full NCEI Bathymetry Viewer


Multibeam Bathymetry

Cruise Details

Project: Transit
Instrument: Simrad EM122

Data Quality

Number of Files: 432
Number of Records: 183510
BATHYMETRY DATA Quantity Percentage
Number of Beams 79276320 100%
Number of Good Beams 75526516 95.27%
Number of Zero Beams 7 0.0%
Number of Flagged Beams 3749797 4.73%

Navigation Totals

Total Time: 213.444 hours
Total Track Length: 3872.7453 km
Average Speed: 18.144 km/hr (9.7970 knots)

Cruise Bounds

Northern Extent: 57.712322
Southern Extent: 32.68453
Western Extent: -152.07413
Eastern Extent: -117.43138

Limits

Minimum Sonar Depth 0.8397 Maximum Sonar Depth 11.4755
Minimum Altitude 85.6402 Maximum Altitude 5237.7441
Minimum Depth 86.5473 Maximum Depth 5687.0547

File Information

Full Resolution Bathymetry as collected (raw): 431

Files File Size Description
0000_20110528_010445_Langseth.all.mb58.gz 35.31MB Kongsberg multibeam vendor format
0001_20110528_013445_Langseth.all.mb58.gz 23.37MB Kongsberg multibeam vendor format
0002_20110528_020445_Langseth.all.mb58.gz 22.90MB Kongsberg multibeam vendor format
0003_20110528_023445_Langseth.all.mb58.gz 22.58MB Kongsberg multibeam vendor format
0004_20110528_030448_Langseth.all.mb58.gz 25.68MB Kongsberg multibeam vendor format
0005_20110528_033446_Langseth.all.mb58.gz 30.57MB Kongsberg multibeam vendor format
0006_20110528_040444_Langseth.all.mb58.gz 27.49MB Kongsberg multibeam vendor format
0007_20110528_043447_Langseth.all.mb58.gz 31.70MB Kongsberg multibeam vendor format
0008_20110528_050447_Langseth.all.mb58.gz 28.27MB Kongsberg multibeam vendor format
0009_20110528_053447_Langseth.all.mb58.gz 22.94MB Kongsberg multibeam vendor format
0010_20110528_060449_Langseth.all.mb58.gz 25.10MB Kongsberg multibeam vendor format
0011_20110528_063446_Langseth.all.mb58.gz 24.21MB Kongsberg multibeam vendor format
0012_20110528_070447_Langseth.all.mb58.gz 22.11MB Kongsberg multibeam vendor format
0013_20110528_073445_Langseth.all.mb58.gz 21.45MB Kongsberg multibeam vendor format
0014_20110528_080445_Langseth.all.mb58.gz 20.36MB Kongsberg multibeam vendor format
0015_20110528_083449_Langseth.all.mb58.gz 25.07MB Kongsberg multibeam vendor format
0016_20110528_090444_Langseth.all.mb58.gz 28.73MB Kongsberg multibeam vendor format
0017_20110528_093447_Langseth.all.mb58.gz 27.87MB Kongsberg multibeam vendor format
0018_20110528_100444_Langseth.all.mb58.gz 22.29MB Kongsberg multibeam vendor format
0019_20110528_103445_Langseth.all.mb58.gz 24.13MB Kongsberg multibeam vendor format
0020_20110528_110446_Langseth.all.mb58.gz 26.07MB Kongsberg multibeam vendor format
0021_20110528_113445_Langseth.all.mb58.gz 21.51MB Kongsberg multibeam vendor format
0022_20110528_120447_Langseth.all.mb58.gz 21.47MB Kongsberg multibeam vendor format
0023_20110528_123449_Langseth.all.mb58.gz 19.59MB Kongsberg multibeam vendor format
0024_20110528_130447_Langseth.all.mb58.gz 19.08MB Kongsberg multibeam vendor format
0025_20110528_133446_Langseth.all.mb58.gz 19.25MB Kongsberg multibeam vendor format
0026_20110528_140444_Langseth.all.mb58.gz 23.78MB Kongsberg multibeam vendor format
0027_20110528_143445_Langseth.all.mb58.gz 31.01MB Kongsberg multibeam vendor format
0028_20110528_150444_Langseth.all.mb58.gz 51.93MB Kongsberg multibeam vendor format
0029_20110528_153444_Langseth.all.mb58.gz 50.21MB Kongsberg multibeam vendor format
0030_20110528_160445_Langseth.all.mb58.gz 37.10MB Kongsberg multibeam vendor format
0031_20110528_163446_Langseth.all.mb58.gz 32.21MB Kongsberg multibeam vendor format
0032_20110528_170444_Langseth.all.mb58.gz 28.21MB Kongsberg multibeam vendor format
0033_20110528_173447_Langseth.all.mb58.gz 26.16MB Kongsberg multibeam vendor format
0034_20110528_180447_Langseth.all.mb58.gz 24.67MB Kongsberg multibeam vendor format
0035_20110528_183447_Langseth.all.mb58.gz 25.81MB Kongsberg multibeam vendor format
0036_20110528_190446_Langseth.all.mb58.gz 21.47MB Kongsberg multibeam vendor format
0037_20110528_193446_Langseth.all.mb58.gz 20.24MB Kongsberg multibeam vendor format
0038_20110528_200444_Langseth.all.mb58.gz 18.23MB Kongsberg multibeam vendor format
0039_20110528_203450_Langseth.all.mb58.gz 17.01MB Kongsberg multibeam vendor format
0040_20110528_210452_Langseth.all.mb58.gz 16.70MB Kongsberg multibeam vendor format
0041_20110528_213447_Langseth.all.mb58.gz 16.98MB Kongsberg multibeam vendor format
0042_20110528_220450_Langseth.all.mb58.gz 18.82MB Kongsberg multibeam vendor format
0043_20110528_223444_Langseth.all.mb58.gz 23.77MB Kongsberg multibeam vendor format
0044_20110528_230444_Langseth.all.mb58.gz 24.91MB Kongsberg multibeam vendor format
0045_20110528_233448_Langseth.all.mb58.gz 23.58MB Kongsberg multibeam vendor format
0046_20110529_000448_Langseth.all.mb58.gz 20.09MB Kongsberg multibeam vendor format
0047_20110529_003449_Langseth.all.mb58.gz 17.14MB Kongsberg multibeam vendor format
0048_20110529_010445_Langseth.all.mb58.gz 16.77MB Kongsberg multibeam vendor format
0049_20110529_013450_Langseth.all.mb58.gz 16.70MB Kongsberg multibeam vendor format
0050_20110529_020445_Langseth.all.mb58.gz 16.83MB Kongsberg multibeam vendor format
0051_20110529_023446_Langseth.all.mb58.gz 16.66MB Kongsberg multibeam vendor format
0052_20110529_030445_Langseth.all.mb58.gz 19.56MB Kongsberg multibeam vendor format
0053_20110529_033445_Langseth.all.mb58.gz 23.24MB Kongsberg multibeam vendor format
0054_20110529_040447_Langseth.all.mb58.gz 25.35MB Kongsberg multibeam vendor format
0055_20110529_043449_Langseth.all.mb58.gz 21.24MB Kongsberg multibeam vendor format
0056_20110529_050448_Langseth.all.mb58.gz 19.18MB Kongsberg multibeam vendor format
0057_20110529_053449_Langseth.all.mb58.gz 16.89MB Kongsberg multibeam vendor format
0058_20110529_060444_Langseth.all.mb58.gz 13.35MB Kongsberg multibeam vendor format
0059_20110529_063454_Langseth.all.mb58.gz 9.70MB Kongsberg multibeam vendor format
0060_20110529_070450_Langseth.all.mb58.gz 9.31MB Kongsberg multibeam vendor format
0061_20110529_073457_Langseth.all.mb58.gz 9.36MB Kongsberg multibeam vendor format
0062_20110529_080447_Langseth.all.mb58.gz 9.43MB Kongsberg multibeam vendor format
0063_20110529_083457_Langseth.all.mb58.gz 8.69MB Kongsberg multibeam vendor format
0064_20110529_090450_Langseth.all.mb58.gz 8.91MB Kongsberg multibeam vendor format
0065_20110529_093453_Langseth.all.mb58.gz 8.56MB Kongsberg multibeam vendor format
0066_20110529_100449_Langseth.all.mb58.gz 8.42MB Kongsberg multibeam vendor format
0067_20110529_103445_Langseth.all.mb58.gz 9.40MB Kongsberg multibeam vendor format
0068_20110529_110452_Langseth.all.mb58.gz 9.64MB Kongsberg multibeam vendor format
0069_20110529_113456_Langseth.all.mb58.gz 9.55MB Kongsberg multibeam vendor format
0070_20110529_120451_Langseth.all.mb58.gz 9.32MB Kongsberg multibeam vendor format
0071_20110529_123453_Langseth.all.mb58.gz 9.33MB Kongsberg multibeam vendor format
0072_20110529_130452_Langseth.all.mb58.gz 9.02MB Kongsberg multibeam vendor format
0073_20110529_133452_Langseth.all.mb58.gz 9.51MB Kongsberg multibeam vendor format
0074_20110529_140451_Langseth.all.mb58.gz 17.28MB Kongsberg multibeam vendor format
0075_20110529_143451_Langseth.all.mb58.gz 10.68MB Kongsberg multibeam vendor format
0076_20110529_150456_Langseth.all.mb58.gz 9.71MB Kongsberg multibeam vendor format
0077_20110529_153444_Langseth.all.mb58.gz 9.39MB Kongsberg multibeam vendor format
0078_20110529_160448_Langseth.all.mb58.gz 9.81MB Kongsberg multibeam vendor format
0079_20110529_163455_Langseth.all.mb58.gz 9.68MB Kongsberg multibeam vendor format
0080_20110529_170456_Langseth.all.mb58.gz 9.67MB Kongsberg multibeam vendor format
0081_20110529_173447_Langseth.all.mb58.gz 9.99MB Kongsberg multibeam vendor format
0082_20110529_180445_Langseth.all.mb58.gz 9.81MB Kongsberg multibeam vendor format
0083_20110529_183446_Langseth.all.mb58.gz 10.08MB Kongsberg multibeam vendor format
0084_20110529_190457_Langseth.all.mb58.gz 9.65MB Kongsberg multibeam vendor format
0085_20110529_193447_Langseth.all.mb58.gz 10.14MB Kongsberg multibeam vendor format
0086_20110529_200451_Langseth.all.mb58.gz 9.45MB Kongsberg multibeam vendor format
0087_20110529_203447_Langseth.all.mb58.gz 9.65MB Kongsberg multibeam vendor format
0088_20110529_210455_Langseth.all.mb58.gz 9.31MB Kongsberg multibeam vendor format
0089_20110529_213453_Langseth.all.mb58.gz 9.71MB Kongsberg multibeam vendor format
0090_20110529_220450_Langseth.all.mb58.gz 9.34MB Kongsberg multibeam vendor format
0091_20110529_223445_Langseth.all.mb58.gz 9.47MB Kongsberg multibeam vendor format
0092_20110529_230447_Langseth.all.mb58.gz 9.31MB Kongsberg multibeam vendor format
0093_20110529_233447_Langseth.all.mb58.gz 9.24MB Kongsberg multibeam vendor format
0094_20110530_000457_Langseth.all.mb58.gz 9.20MB Kongsberg multibeam vendor format
0095_20110530_003452_Langseth.all.mb58.gz 9.43MB Kongsberg multibeam vendor format
0096_20110530_010447_Langseth.all.mb58.gz 9.39MB Kongsberg multibeam vendor format
0097_20110530_013451_Langseth.all.mb58.gz 9.35MB Kongsberg multibeam vendor format
0098_20110530_020446_Langseth.all.mb58.gz 9.20MB Kongsberg multibeam vendor format
0099_20110530_023453_Langseth.all.mb58.gz 9.44MB Kongsberg multibeam vendor format
0100_20110530_030451_Langseth.all.mb58.gz 9.16MB Kongsberg multibeam vendor format
0101_20110530_033452_Langseth.all.mb58.gz 9.33MB Kongsberg multibeam vendor format
0102_20110530_040458_Langseth.all.mb58.gz 9.29MB Kongsberg multibeam vendor format
0103_20110530_043447_Langseth.all.mb58.gz 9.28MB Kongsberg multibeam vendor format
0104_20110530_050448_Langseth.all.mb58.gz 9.12MB Kongsberg multibeam vendor format
0105_20110530_053454_Langseth.all.mb58.gz 9.26MB Kongsberg multibeam vendor format
0106_20110530_060448_Langseth.all.mb58.gz 9.28MB Kongsberg multibeam vendor format
0107_20110530_063449_Langseth.all.mb58.gz 9.07MB Kongsberg multibeam vendor format
0108_20110530_070445_Langseth.all.mb58.gz 9.00MB Kongsberg multibeam vendor format
0109_20110530_073448_Langseth.all.mb58.gz 8.98MB Kongsberg multibeam vendor format
0110_20110530_080452_Langseth.all.mb58.gz 9.11MB Kongsberg multibeam vendor format
0111_20110530_083457_Langseth.all.mb58.gz 9.05MB Kongsberg multibeam vendor format
0112_20110530_090446_Langseth.all.mb58.gz 8.90MB Kongsberg multibeam vendor format
0113_20110530_093446_Langseth.all.mb58.gz 9.09MB Kongsberg multibeam vendor format
0114_20110530_100450_Langseth.all.mb58.gz 9.02MB Kongsberg multibeam vendor format
0115_20110530_103445_Langseth.all.mb58.gz 9.07MB Kongsberg multibeam vendor format
0116_20110530_110456_Langseth.all.mb58.gz 8.97MB Kongsberg multibeam vendor format
0117_20110530_113446_Langseth.all.mb58.gz 8.95MB Kongsberg multibeam vendor format
0118_20110530_120447_Langseth.all.mb58.gz 9.08MB Kongsberg multibeam vendor format
0119_20110530_123457_Langseth.all.mb58.gz 8.96MB Kongsberg multibeam vendor format
0120_20110530_130446_Langseth.all.mb58.gz 9.05MB Kongsberg multibeam vendor format
0121_20110530_133454_Langseth.all.mb58.gz 9.01MB Kongsberg multibeam vendor format
0122_20110530_140453_Langseth.all.mb58.gz 8.92MB Kongsberg multibeam vendor format
0123_20110530_143448_Langseth.all.mb58.gz 9.04MB Kongsberg multibeam vendor format
0124_20110530_150447_Langseth.all.mb58.gz 9.17MB Kongsberg multibeam vendor format
0125_20110530_153456_Langseth.all.mb58.gz 8.97MB Kongsberg multibeam vendor format
0126_20110530_160447_Langseth.all.mb58.gz 9.04MB Kongsberg multibeam vendor format
0127_20110530_163457_Langseth.all.mb58.gz 9.00MB Kongsberg multibeam vendor format
0128_20110530_170455_Langseth.all.mb58.gz 9.00MB Kongsberg multibeam vendor format
0129_20110530_173447_Langseth.all.mb58.gz 8.98MB Kongsberg multibeam vendor format
0130_20110530_180445_Langseth.all.mb58.gz 8.98MB Kongsberg multibeam vendor format
0131_20110530_183456_Langseth.all.mb58.gz 8.81MB Kongsberg multibeam vendor format
0132_20110530_190447_Langseth.all.mb58.gz 8.80MB Kongsberg multibeam vendor format
0133_20110530_193454_Langseth.all.mb58.gz 8.76MB Kongsberg multibeam vendor format
0134_20110530_200454_Langseth.all.mb58.gz 8.73MB Kongsberg multibeam vendor format
0135_20110530_203446_Langseth.all.mb58.gz 8.82MB Kongsberg multibeam vendor format
0136_20110530_210445_Langseth.all.mb58.gz 8.81MB Kongsberg multibeam vendor format
0137_20110530_213458_Langseth.all.mb58.gz 8.67MB Kongsberg multibeam vendor format
0138_20110530_220452_Langseth.all.mb58.gz 8.69MB Kongsberg multibeam vendor format
0139_20110530_223446_Langseth.all.mb58.gz 8.69MB Kongsberg multibeam vendor format
0140_20110530_230448_Langseth.all.mb58.gz 8.67MB Kongsberg multibeam vendor format
0141_20110530_233448_Langseth.all.mb58.gz 8.75MB Kongsberg multibeam vendor format
0142_20110531_000454_Langseth.all.mb58.gz 8.76MB Kongsberg multibeam vendor format
0143_20110531_003457_Langseth.all.mb58.gz 8.84MB Kongsberg multibeam vendor format
0144_20110531_010457_Langseth.all.mb58.gz 8.70MB Kongsberg multibeam vendor format
0145_20110531_013446_Langseth.all.mb58.gz 8.71MB Kongsberg multibeam vendor format
0146_20110531_020448_Langseth.all.mb58.gz 8.72MB Kongsberg multibeam vendor format
0147_20110531_023447_Langseth.all.mb58.gz 8.69MB Kongsberg multibeam vendor format
0148_20110531_030448_Langseth.all.mb58.gz 8.79MB Kongsberg multibeam vendor format
0149_20110531_033452_Langseth.all.mb58.gz 8.80MB Kongsberg multibeam vendor format
0150_20110531_040456_Langseth.all.mb58.gz 8.63MB Kongsberg multibeam vendor format
0151_20110531_043450_Langseth.all.mb58.gz 8.78MB Kongsberg multibeam vendor format
0152_20110531_050454_Langseth.all.mb58.gz 8.78MB Kongsberg multibeam vendor format
0153_20110531_053456_Langseth.all.mb58.gz 8.74MB Kongsberg multibeam vendor format
0154_20110531_060454_Langseth.all.mb58.gz 8.80MB Kongsberg multibeam vendor format
0155_20110531_063451_Langseth.all.mb58.gz 8.72MB Kongsberg multibeam vendor format
0156_20110531_070456_Langseth.all.mb58.gz 8.61MB Kongsberg multibeam vendor format
0157_20110531_073444_Langseth.all.mb58.gz 8.87MB Kongsberg multibeam vendor format
0158_20110531_080453_Langseth.all.mb58.gz 8.82MB Kongsberg multibeam vendor format
0159_20110531_083448_Langseth.all.mb58.gz 10.43MB Kongsberg multibeam vendor format
0160_20110531_090447_Langseth.all.mb58.gz 13.36MB Kongsberg multibeam vendor format
0161_20110531_093455_Langseth.all.mb58.gz 10.21MB Kongsberg multibeam vendor format
0162_20110531_100443_Langseth.all.mb58.gz 10.61MB Kongsberg multibeam vendor format
0163_20110531_103456_Langseth.all.mb58.gz 10.26MB Kongsberg multibeam vendor format
0164_20110531_110450_Langseth.all.mb58.gz 10.31MB Kongsberg multibeam vendor format
0165_20110531_113448_Langseth.all.mb58.gz 10.57MB Kongsberg multibeam vendor format
0166_20110531_120456_Langseth.all.mb58.gz 10.23MB Kongsberg multibeam vendor format
0167_20110531_123455_Langseth.all.mb58.gz 10.46MB Kongsberg multibeam vendor format
0168_20110531_130454_Langseth.all.mb58.gz 10.37MB Kongsberg multibeam vendor format
0169_20110531_133447_Langseth.all.mb58.gz 10.17MB Kongsberg multibeam vendor format
0170_20110531_140446_Langseth.all.mb58.gz 10.52MB Kongsberg multibeam vendor format
0171_20110531_143452_Langseth.all.mb58.gz 10.48MB Kongsberg multibeam vendor format
0172_20110531_150450_Langseth.all.mb58.gz 10.23MB Kongsberg multibeam vendor format
0173_20110531_153446_Langseth.all.mb58.gz 10.42MB Kongsberg multibeam vendor format
0174_20110531_160456_Langseth.all.mb58.gz 10.03MB Kongsberg multibeam vendor format
0175_20110531_163445_Langseth.all.mb58.gz 10.24MB Kongsberg multibeam vendor format
0176_20110531_170454_Langseth.all.mb58.gz 10.21MB Kongsberg multibeam vendor format
0177_20110531_173445_Langseth.all.mb58.gz 10.28MB Kongsberg multibeam vendor format
0178_20110531_180448_Langseth.all.mb58.gz 10.00MB Kongsberg multibeam vendor format
0179_20110531_183452_Langseth.all.mb58.gz 9.97MB Kongsberg multibeam vendor format
0180_20110531_190443_Langseth.all.mb58.gz 10.00MB Kongsberg multibeam vendor format
0181_20110531_193443_Langseth.all.mb58.gz 10.12MB Kongsberg multibeam vendor format
0182_20110531_200447_Langseth.all.mb58.gz 10.34MB Kongsberg multibeam vendor format
0183_20110531_203443_Langseth.all.mb58.gz 10.18MB Kongsberg multibeam vendor format
0184_20110531_210450_Langseth.all.mb58.gz 10.10MB Kongsberg multibeam vendor format
0185_20110531_213444_Langseth.all.mb58.gz 10.35MB Kongsberg multibeam vendor format
0186_20110531_220444_Langseth.all.mb58.gz 10.36MB Kongsberg multibeam vendor format
0187_20110531_223446_Langseth.all.mb58.gz 10.14MB Kongsberg multibeam vendor format
0188_20110531_230449_Langseth.all.mb58.gz 10.16MB Kongsberg multibeam vendor format
0189_20110531_233450_Langseth.all.mb58.gz 10.10MB Kongsberg multibeam vendor format
0190_20110601_000453_Langseth.all.mb58.gz 9.95MB Kongsberg multibeam vendor format
0191_20110601_003446_Langseth.all.mb58.gz 9.94MB Kongsberg multibeam vendor format
0192_20110601_010444_Langseth.all.mb58.gz 9.99MB Kongsberg multibeam vendor format
0193_20110601_013443_Langseth.all.mb58.gz 10.16MB Kongsberg multibeam vendor format
0194_20110601_020453_Langseth.all.mb58.gz 9.89MB Kongsberg multibeam vendor format
0195_20110601_023448_Langseth.all.mb58.gz 10.08MB Kongsberg multibeam vendor format
0196_20110601_030446_Langseth.all.mb58.gz 9.96MB Kongsberg multibeam vendor format
0197_20110601_033445_Langseth.all.mb58.gz 9.90MB Kongsberg multibeam vendor format
0198_20110601_040447_Langseth.all.mb58.gz 9.67MB Kongsberg multibeam vendor format
0199_20110601_043444_Langseth.all.mb58.gz 9.74MB Kongsberg multibeam vendor format
0200_20110601_050448_Langseth.all.mb58.gz 9.83MB Kongsberg multibeam vendor format
0201_20110601_053452_Langseth.all.mb58.gz 9.75MB Kongsberg multibeam vendor format
0202_20110601_060445_Langseth.all.mb58.gz 9.78MB Kongsberg multibeam vendor format
0203_20110601_063450_Langseth.all.mb58.gz 9.69MB Kongsberg multibeam vendor format
0204_20110601_070448_Langseth.all.mb58.gz 9.66MB Kongsberg multibeam vendor format
0205_20110601_073454_Langseth.all.mb58.gz 9.65MB Kongsberg multibeam vendor format
0206_20110601_080449_Langseth.all.mb58.gz 9.70MB Kongsberg multibeam vendor format
0207_20110601_083454_Langseth.all.mb58.gz 9.65MB Kongsberg multibeam vendor format
0208_20110601_090443_Langseth.all.mb58.gz 9.63MB Kongsberg multibeam vendor format
0209_20110601_093445_Langseth.all.mb58.gz 9.71MB Kongsberg multibeam vendor format
0210_20110601_100453_Langseth.all.mb58.gz 9.55MB Kongsberg multibeam vendor format
0211_20110601_103449_Langseth.all.mb58.gz 9.49MB Kongsberg multibeam vendor format
0212_20110601_110455_Langseth.all.mb58.gz 9.41MB Kongsberg multibeam vendor format
0213_20110601_113453_Langseth.all.mb58.gz 9.39MB Kongsberg multibeam vendor format
0214_20110601_120446_Langseth.all.mb58.gz 9.49MB Kongsberg multibeam vendor format
0215_20110601_123454_Langseth.all.mb58.gz 9.43MB Kongsberg multibeam vendor format
0216_20110601_130450_Langseth.all.mb58.gz 9.43MB Kongsberg multibeam vendor format
0217_20110601_133454_Langseth.all.mb58.gz 9.40MB Kongsberg multibeam vendor format
0218_20110601_140447_Langseth.all.mb58.gz 9.52MB Kongsberg multibeam vendor format
0219_20110601_143456_Langseth.all.mb58.gz 9.44MB Kongsberg multibeam vendor format
0220_20110601_150449_Langseth.all.mb58.gz 9.35MB Kongsberg multibeam vendor format
0221_20110601_153446_Langseth.all.mb58.gz 9.36MB Kongsberg multibeam vendor format
0222_20110601_160448_Langseth.all.mb58.gz 9.36MB Kongsberg multibeam vendor format
0223_20110601_163448_Langseth.all.mb58.gz 9.28MB Kongsberg multibeam vendor format
0224_20110601_170446_Langseth.all.mb58.gz 9.38MB Kongsberg multibeam vendor format
0225_20110601_173456_Langseth.all.mb58.gz 9.55MB Kongsberg multibeam vendor format
0226_20110601_180447_Langseth.all.mb58.gz 9.34MB Kongsberg multibeam vendor format
0227_20110601_183442_Langseth.all.mb58.gz 9.42MB Kongsberg multibeam vendor format
0228_20110601_190443_Langseth.all.mb58.gz 9.51MB Kongsberg multibeam vendor format
0229_20110601_193446_Langseth.all.mb58.gz 9.66MB Kongsberg multibeam vendor format
0230_20110601_200448_Langseth.all.mb58.gz 9.39MB Kongsberg multibeam vendor format
0231_20110601_203447_Langseth.all.mb58.gz 9.44MB Kongsberg multibeam vendor format
0232_20110601_210456_Langseth.all.mb58.gz 9.28MB Kongsberg multibeam vendor format
0233_20110601_213452_Langseth.all.mb58.gz 9.27MB Kongsberg multibeam vendor format
0234_20110601_220450_Langseth.all.mb58.gz 9.08MB Kongsberg multibeam vendor format
0235_20110601_223446_Langseth.all.mb58.gz 9.11MB Kongsberg multibeam vendor format
0236_20110601_230447_Langseth.all.mb58.gz 9.11MB Kongsberg multibeam vendor format
0237_20110601_233447_Langseth.all.mb58.gz 9.17MB Kongsberg multibeam vendor format
0238_20110602_000454_Langseth.all.mb58.gz 9.01MB Kongsberg multibeam vendor format
0239_20110602_003450_Langseth.all.mb58.gz 9.01MB Kongsberg multibeam vendor format
0240_20110602_010449_Langseth.all.mb58.gz 9.09MB Kongsberg multibeam vendor format
0241_20110602_013457_Langseth.all.mb58.gz 9.00MB Kongsberg multibeam vendor format
0242_20110602_020457_Langseth.all.mb58.gz 8.91MB Kongsberg multibeam vendor format
0243_20110602_023449_Langseth.all.mb58.gz 8.96MB Kongsberg multibeam vendor format
0244_20110602_030450_Langseth.all.mb58.gz 8.91MB Kongsberg multibeam vendor format
0245_20110602_033444_Langseth.all.mb58.gz 8.91MB Kongsberg multibeam vendor format
0246_20110602_040449_Langseth.all.mb58.gz 8.92MB Kongsberg multibeam vendor format
0247_20110602_043450_Langseth.all.mb58.gz 8.92MB Kongsberg multibeam vendor format
0248_20110602_050443_Langseth.all.mb58.gz 9.02MB Kongsberg multibeam vendor format
0249_20110602_053456_Langseth.all.mb58.gz 8.82MB Kongsberg multibeam vendor format
0250_20110602_060451_Langseth.all.mb58.gz 8.90MB Kongsberg multibeam vendor format
0251_20110602_063454_Langseth.all.mb58.gz 8.87MB Kongsberg multibeam vendor format
0252_20110602_070447_Langseth.all.mb58.gz 8.75MB Kongsberg multibeam vendor format
0253_20110602_073453_Langseth.all.mb58.gz 8.74MB Kongsberg multibeam vendor format
0254_20110602_080448_Langseth.all.mb58.gz 8.55MB Kongsberg multibeam vendor format
0255_20110602_083446_Langseth.all.mb58.gz 8.46MB Kongsberg multibeam vendor format
0256_20110602_090443_Langseth.all.mb58.gz 8.50MB Kongsberg multibeam vendor format
0257_20110602_093449_Langseth.all.mb58.gz 8.41MB Kongsberg multibeam vendor format
0258_20110602_100448_Langseth.all.mb58.gz 8.50MB Kongsberg multibeam vendor format
0259_20110602_103455_Langseth.all.mb58.gz 8.37MB Kongsberg multibeam vendor format
0260_20110602_110448_Langseth.all.mb58.gz 8.42MB Kongsberg multibeam vendor format
0261_20110602_113454_Langseth.all.mb58.gz 8.16MB Kongsberg multibeam vendor format
0262_20110602_120445_Langseth.all.mb58.gz 8.43MB Kongsberg multibeam vendor format
0263_20110602_123452_Langseth.all.mb58.gz 8.33MB Kongsberg multibeam vendor format
0264_20110602_130453_Langseth.all.mb58.gz 8.22MB Kongsberg multibeam vendor format
0265_20110602_133445_Langseth.all.mb58.gz 8.24MB Kongsberg multibeam vendor format
0266_20110602_140451_Langseth.all.mb58.gz 8.26MB Kongsberg multibeam vendor format
0267_20110602_143452_Langseth.all.mb58.gz 8.39MB Kongsberg multibeam vendor format
0268_20110602_150448_Langseth.all.mb58.gz 8.61MB Kongsberg multibeam vendor format
0269_20110602_153452_Langseth.all.mb58.gz 8.49MB Kongsberg multibeam vendor format
0270_20110602_160453_Langseth.all.mb58.gz 8.68MB Kongsberg multibeam vendor format
0271_20110602_163456_Langseth.all.mb58.gz 8.63MB Kongsberg multibeam vendor format
0272_20110602_170451_Langseth.all.mb58.gz 8.83MB Kongsberg multibeam vendor format
0273_20110602_173457_Langseth.all.mb58.gz 8.79MB Kongsberg multibeam vendor format
0274_20110602_180448_Langseth.all.mb58.gz 8.94MB Kongsberg multibeam vendor format
0275_20110602_183454_Langseth.all.mb58.gz 8.83MB Kongsberg multibeam vendor format
0276_20110602_190454_Langseth.all.mb58.gz 8.87MB Kongsberg multibeam vendor format
0277_20110602_193445_Langseth.all.mb58.gz 8.98MB Kongsberg multibeam vendor format
0278_20110602_200450_Langseth.all.mb58.gz 9.06MB Kongsberg multibeam vendor format
0279_20110602_203455_Langseth.all.mb58.gz 9.07MB Kongsberg multibeam vendor format
0280_20110602_210443_Langseth.all.mb58.gz 9.14MB Kongsberg multibeam vendor format
0281_20110602_213455_Langseth.all.mb58.gz 9.06MB Kongsberg multibeam vendor format
0282_20110602_220455_Langseth.all.mb58.gz 9.25MB Kongsberg multibeam vendor format
0283_20110602_223454_Langseth.all.mb58.gz 9.10MB Kongsberg multibeam vendor format
0284_20110602_230445_Langseth.all.mb58.gz 9.19MB Kongsberg multibeam vendor format
0285_20110602_233451_Langseth.all.mb58.gz 9.22MB Kongsberg multibeam vendor format
0286_20110603_000454_Langseth.all.mb58.gz 9.22MB Kongsberg multibeam vendor format
0287_20110603_003448_Langseth.all.mb58.gz 9.11MB Kongsberg multibeam vendor format
0288_20110603_010443_Langseth.all.mb58.gz 9.08MB Kongsberg multibeam vendor format
0289_20110603_013454_Langseth.all.mb58.gz 8.99MB Kongsberg multibeam vendor format
0290_20110603_020449_Langseth.all.mb58.gz 9.10MB Kongsberg multibeam vendor format
0291_20110603_023456_Langseth.all.mb58.gz 9.01MB Kongsberg multibeam vendor format
0292_20110603_030452_Langseth.all.mb58.gz 8.98MB Kongsberg multibeam vendor format
0293_20110603_033443_Langseth.all.mb58.gz 8.76MB Kongsberg multibeam vendor format
0294_20110603_040448_Langseth.all.mb58.gz 8.85MB Kongsberg multibeam vendor format
0295_20110603_043454_Langseth.all.mb58.gz 8.74MB Kongsberg multibeam vendor format
0296_20110603_050453_Langseth.all.mb58.gz 8.81MB Kongsberg multibeam vendor format
0297_20110603_053455_Langseth.all.mb58.gz 8.84MB Kongsberg multibeam vendor format
0298_20110603_060455_Langseth.all.mb58.gz 8.86MB Kongsberg multibeam vendor format
0299_20110603_063452_Langseth.all.mb58.gz 8.69MB Kongsberg multibeam vendor format
0300_20110603_070446_Langseth.all.mb58.gz 9.05MB Kongsberg multibeam vendor format
0301_20110603_073456_Langseth.all.mb58.gz 8.84MB Kongsberg multibeam vendor format
0302_20110603_080442_Langseth.all.mb58.gz 8.88MB Kongsberg multibeam vendor format
0303_20110603_083446_Langseth.all.mb58.gz 8.84MB Kongsberg multibeam vendor format
0304_20110603_090443_Langseth.all.mb58.gz 8.87MB Kongsberg multibeam vendor format
0305_20110603_093448_Langseth.all.mb58.gz 8.82MB Kongsberg multibeam vendor format
0306_20110603_100448_Langseth.all.mb58.gz 8.62MB Kongsberg multibeam vendor format
0307_20110603_103452_Langseth.all.mb58.gz 8.74MB Kongsberg multibeam vendor format
0308_20110603_110444_Langseth.all.mb58.gz 8.88MB Kongsberg multibeam vendor format
0309_20110603_113447_Langseth.all.mb58.gz 8.99MB Kongsberg multibeam vendor format
0310_20110603_120442_Langseth.all.mb58.gz 9.00MB Kongsberg multibeam vendor format
0311_20110603_123445_Langseth.all.mb58.gz 9.04MB Kongsberg multibeam vendor format
0312_20110603_130450_Langseth.all.mb58.gz 9.05MB Kongsberg multibeam vendor format
0313_20110603_133454_Langseth.all.mb58.gz 9.03MB Kongsberg multibeam vendor format
0314_20110603_140446_Langseth.all.mb58.gz 9.03MB Kongsberg multibeam vendor format
0315_20110603_143447_Langseth.all.mb58.gz 9.06MB Kongsberg multibeam vendor format
0316_20110603_150449_Langseth.all.mb58.gz 9.01MB Kongsberg multibeam vendor format
0317_20110603_153444_Langseth.all.mb58.gz 8.97MB Kongsberg multibeam vendor format
0318_20110603_160447_Langseth.all.mb58.gz 9.00MB Kongsberg multibeam vendor format
0319_20110603_163454_Langseth.all.mb58.gz 9.00MB Kongsberg multibeam vendor format
0320_20110603_170455_Langseth.all.mb58.gz 8.99MB Kongsberg multibeam vendor format
0321_20110603_173452_Langseth.all.mb58.gz 8.88MB Kongsberg multibeam vendor format
0322_20110603_180450_Langseth.all.mb58.gz 8.90MB Kongsberg multibeam vendor format
0323_20110603_183443_Langseth.all.mb58.gz 9.11MB Kongsberg multibeam vendor format
0324_20110603_190450_Langseth.all.mb58.gz 8.93MB Kongsberg multibeam vendor format
0325_20110603_193454_Langseth.all.mb58.gz 8.82MB Kongsberg multibeam vendor format
0326_20110603_200452_Langseth.all.mb58.gz 8.80MB Kongsberg multibeam vendor format
0327_20110603_203448_Langseth.all.mb58.gz 8.91MB Kongsberg multibeam vendor format
0328_20110603_210458_Langseth.all.mb58.gz 8.84MB Kongsberg multibeam vendor format
0329_20110603_213444_Langseth.all.mb58.gz 8.89MB Kongsberg multibeam vendor format
0330_20110603_220452_Langseth.all.mb58.gz 8.91MB Kongsberg multibeam vendor format
0331_20110603_223449_Langseth.all.mb58.gz 8.92MB Kongsberg multibeam vendor format
0332_20110603_230447_Langseth.all.mb58.gz 9.11MB Kongsberg multibeam vendor format
0333_20110603_233446_Langseth.all.mb58.gz 9.06MB Kongsberg multibeam vendor format
0334_20110604_000451_Langseth.all.mb58.gz 9.02MB Kongsberg multibeam vendor format
0335_20110604_003452_Langseth.all.mb58.gz 9.14MB Kongsberg multibeam vendor format
0336_20110604_010446_Langseth.all.mb58.gz 9.11MB Kongsberg multibeam vendor format
0337_20110604_013448_Langseth.all.mb58.gz 9.20MB Kongsberg multibeam vendor format
0338_20110604_020455_Langseth.all.mb58.gz 9.18MB Kongsberg multibeam vendor format
0339_20110604_023453_Langseth.all.mb58.gz 9.35MB Kongsberg multibeam vendor format
0340_20110604_030456_Langseth.all.mb58.gz 9.78MB Kongsberg multibeam vendor format
0341_20110604_033448_Langseth.all.mb58.gz 12.38MB Kongsberg multibeam vendor format
0342_20110604_040447_Langseth.all.mb58.gz 11.83MB Kongsberg multibeam vendor format
0343_20110604_043452_Langseth.all.mb58.gz 9.71MB Kongsberg multibeam vendor format
0344_20110604_050449_Langseth.all.mb58.gz 9.46MB Kongsberg multibeam vendor format
0345_20110604_053454_Langseth.all.mb58.gz 9.38MB Kongsberg multibeam vendor format
0346_20110604_060454_Langseth.all.mb58.gz 9.25MB Kongsberg multibeam vendor format
0347_20110604_063458_Langseth.all.mb58.gz 9.33MB Kongsberg multibeam vendor format
0348_20110604_070456_Langseth.all.mb58.gz 9.36MB Kongsberg multibeam vendor format
0349_20110604_073458_Langseth.all.mb58.gz 9.23MB Kongsberg multibeam vendor format
0350_20110604_080451_Langseth.all.mb58.gz 9.06MB Kongsberg multibeam vendor format
0351_20110604_083447_Langseth.all.mb58.gz 9.11MB Kongsberg multibeam vendor format
0352_20110604_090459_Langseth.all.mb58.gz 9.08MB Kongsberg multibeam vendor format
0353_20110604_093450_Langseth.all.mb58.gz 9.15MB Kongsberg multibeam vendor format
0354_20110604_100457_Langseth.all.mb58.gz 8.92MB Kongsberg multibeam vendor format
0355_20110604_103453_Langseth.all.mb58.gz 9.04MB Kongsberg multibeam vendor format
0356_20110604_110447_Langseth.all.mb58.gz 8.95MB Kongsberg multibeam vendor format
0357_20110604_113452_Langseth.all.mb58.gz 8.91MB Kongsberg multibeam vendor format
0358_20110604_120458_Langseth.all.mb58.gz 8.85MB Kongsberg multibeam vendor format
0359_20110604_123453_Langseth.all.mb58.gz 8.74MB Kongsberg multibeam vendor format
0360_20110604_130446_Langseth.all.mb58.gz 8.92MB Kongsberg multibeam vendor format
0361_20110604_133450_Langseth.all.mb58.gz 9.01MB Kongsberg multibeam vendor format
0362_20110604_140459_Langseth.all.mb58.gz 8.90MB Kongsberg multibeam vendor format
0363_20110604_143447_Langseth.all.mb58.gz 8.94MB Kongsberg multibeam vendor format
0364_20110604_150448_Langseth.all.mb58.gz 8.96MB Kongsberg multibeam vendor format
0365_20110604_153449_Langseth.all.mb58.gz 8.98MB Kongsberg multibeam vendor format
0366_20110604_160459_Langseth.all.mb58.gz 8.91MB Kongsberg multibeam vendor format
0367_20110604_163446_Langseth.all.mb58.gz 9.06MB Kongsberg multibeam vendor format
0368_20110604_170449_Langseth.all.mb58.gz 9.02MB Kongsberg multibeam vendor format
0369_20110604_173450_Langseth.all.mb58.gz 9.03MB Kongsberg multibeam vendor format
0370_20110604_180448_Langseth.all.mb58.gz 8.84MB Kongsberg multibeam vendor format
0371_20110604_183450_Langseth.all.mb58.gz 8.92MB Kongsberg multibeam vendor format
0372_20110604_190446_Langseth.all.mb58.gz 8.88MB Kongsberg multibeam vendor format
0373_20110604_193450_Langseth.all.mb58.gz 8.79MB Kongsberg multibeam vendor format
0374_20110604_200448_Langseth.all.mb58.gz 8.94MB Kongsberg multibeam vendor format
0375_20110604_203501_Langseth.all.mb58.gz 8.81MB Kongsberg multibeam vendor format
0376_20110604_210457_Langseth.all.mb58.gz 8.91MB Kongsberg multibeam vendor format
0377_20110604_213451_Langseth.all.mb58.gz 9.08MB Kongsberg multibeam vendor format
0378_20110604_220457_Langseth.all.mb58.gz 8.90MB Kongsberg multibeam vendor format
0379_20110604_223456_Langseth.all.mb58.gz 8.80MB Kongsberg multibeam vendor format
0380_20110604_230453_Langseth.all.mb58.gz 8.94MB Kongsberg multibeam vendor format
0381_20110604_233448_Langseth.all.mb58.gz 9.01MB Kongsberg multibeam vendor format
0382_20110605_000447_Langseth.all.mb58.gz 9.21MB Kongsberg multibeam vendor format
0383_20110605_003452_Langseth.all.mb58.gz 9.07MB Kongsberg multibeam vendor format
0384_20110605_010452_Langseth.all.mb58.gz 9.04MB Kongsberg multibeam vendor format
0385_20110605_013454_Langseth.all.mb58.gz 9.08MB Kongsberg multibeam vendor format
0386_20110605_020452_Langseth.all.mb58.gz 9.13MB Kongsberg multibeam vendor format
0387_20110605_023446_Langseth.all.mb58.gz 9.11MB Kongsberg multibeam vendor format
0388_20110605_030456_Langseth.all.mb58.gz 9.09MB Kongsberg multibeam vendor format
0389_20110605_033457_Langseth.all.mb58.gz 9.06MB Kongsberg multibeam vendor format
0390_20110605_040445_Langseth.all.mb58.gz 9.26MB Kongsberg multibeam vendor format
0391_20110605_043457_Langseth.all.mb58.gz 9.17MB Kongsberg multibeam vendor format
0392_20110605_050452_Langseth.all.mb58.gz 9.11MB Kongsberg multibeam vendor format
0393_20110605_053459_Langseth.all.mb58.gz 8.97MB Kongsberg multibeam vendor format
0394_20110605_060459_Langseth.all.mb58.gz 8.86MB Kongsberg multibeam vendor format
0395_20110605_063459_Langseth.all.mb58.gz 8.80MB Kongsberg multibeam vendor format
0396_20110605_070458_Langseth.all.mb58.gz 8.87MB Kongsberg multibeam vendor format
0397_20110605_073457_Langseth.all.mb58.gz 8.83MB Kongsberg multibeam vendor format
0398_20110605_080454_Langseth.all.mb58.gz 8.89MB Kongsberg multibeam vendor format
0399_20110605_083451_Langseth.all.mb58.gz 8.86MB Kongsberg multibeam vendor format
0400_20110605_090457_Langseth.all.mb58.gz 8.93MB Kongsberg multibeam vendor format
0401_20110605_093452_Langseth.all.mb58.gz 8.91MB Kongsberg multibeam vendor format
0402_20110605_100446_Langseth.all.mb58.gz 8.87MB Kongsberg multibeam vendor format
0403_20110605_103452_Langseth.all.mb58.gz 8.74MB Kongsberg multibeam vendor format
0404_20110605_110445_Langseth.all.mb58.gz 8.73MB Kongsberg multibeam vendor format
0405_20110605_113452_Langseth.all.mb58.gz 8.73MB Kongsberg multibeam vendor format
0406_20110605_120453_Langseth.all.mb58.gz 8.73MB Kongsberg multibeam vendor format
0407_20110605_123451_Langseth.all.mb58.gz 8.76MB Kongsberg multibeam vendor format
0408_20110605_130445_Langseth.all.mb58.gz 8.68MB Kongsberg multibeam vendor format
0409_20110605_133458_Langseth.all.mb58.gz 8.51MB Kongsberg multibeam vendor format
0410_20110605_140447_Langseth.all.mb58.gz 8.49MB Kongsberg multibeam vendor format
0411_20110605_143458_Langseth.all.mb58.gz 8.40MB Kongsberg multibeam vendor format
0412_20110605_150446_Langseth.all.mb58.gz 8.47MB Kongsberg multibeam vendor format
0413_20110605_153457_Langseth.all.mb58.gz 8.87MB Kongsberg multibeam vendor format
0414_20110605_160450_Langseth.all.mb58.gz 9.70MB Kongsberg multibeam vendor format
0415_20110605_163452_Langseth.all.mb58.gz 10.26MB Kongsberg multibeam vendor format
0416_20110605_170447_Langseth.all.mb58.gz 10.80MB Kongsberg multibeam vendor format
0417_20110605_173448_Langseth.all.mb58.gz 14.09MB Kongsberg multibeam vendor format
0418_20110605_180447_Langseth.all.mb58.gz 16.72MB Kongsberg multibeam vendor format
0419_20110605_183445_Langseth.all.mb58.gz 20.60MB Kongsberg multibeam vendor format
0420_20110605_190447_Langseth.all.mb58.gz 31.04MB Kongsberg multibeam vendor format
0421_20110605_193444_Langseth.all.mb58.gz 81.45MB Kongsberg multibeam vendor format
0422_20110605_200444_Langseth.all.mb58.gz 83.76MB Kongsberg multibeam vendor format
0423_20110605_203445_Langseth.all.mb58.gz 75.01MB Kongsberg multibeam vendor format
0424_20110605_210444_Langseth.all.mb58.gz 67.41MB Kongsberg multibeam vendor format
0425_20110605_213444_Langseth.all.mb58.gz 70.30MB Kongsberg multibeam vendor format
0426_20110605_220445_Langseth.all.mb58.gz 72.63MB Kongsberg multibeam vendor format
0427_20110605_223444_Langseth.all.mb58.gz 86.00MB Kongsberg multibeam vendor format
0428_20110605_230444_Langseth.all.mb58.gz 92.42MB Kongsberg multibeam vendor format
0429_20110605_233444_Langseth.all.mb58.gz 79.07MB Kongsberg multibeam vendor format
0430_20110606_000444_Langseth.all.mb58.gz 9.06MB Kongsberg multibeam vendor format

Metadata Files: 1

Files File Size Description
MGL1108_Multibeam.xml NGDC created ISO metadata